EHI
0 0 0 0 0 0 0 0 0 0 0 0 0 0 0 0 0 0 0 0 0 0 0 0 0 0 0 0 0 0 0 0 0 0 0 0 0 0
0 0 0 0 0 0 0 0 0 0 0 0 0 0 0 0 0 0 0 0 0 0 0 0 0 0 0 0 0 0 0 0 0 0 0 0 0 0
0 0 0 0 0 0 0 0 0 0 0 0 0 0 0 0 0 0 0 0 0 0 0 0 0 0 0 0 0 0 0 0 0 0 0 0 0 0
0 0 0 0 0 0 0 0 0 0 0 0 0 0 0 0 0 0 0 0 0 0 0 0 0 0 0 0 0 0 0 0 0 0 0 0 0 0
0 0 0 0 0 0 0 0 0 0 0 0 0 0 0 0 0 0 0 0 0 0 0 0 0 0 0 0 0 0 0 0 0 0 0 0 0 0
0 0 0 0 0 0 0 0 0 0 0 0 0 0 0 0 0 0 0 0 0 0 0 0 0 0 0 0 0 0 0 0 0 0 0 0 0 0
0 0 0 0 0 0 0 0 0 0 0 0 0 0 0 0 0 0 0 0 0 0 0 0 0 0 0 0 0 0 0 0 0 0 0 0 0 0
0 0 0 0 0 0 0 0 0 0 0 0 0 0 0 0 0 0 0 0 0 0 0 0 0 0 0 0 0 0 0 0 0 0 0 0 0 0
0 0 0 0 0 0 0 0 0 0 0 0 0 0 0 0 0 0 0 0 0 0 0 0 0 0 0 0 0 0 0 0 0 0 0 0 0 0
0 0 0 0 0 0 0 0 0 0 0 0 0 0 0 0 0 0 0 0 0 0 0 0 0 0 0 0 0 0 0 0 0 0 0 0 0 0
0 0 0 0 0 0 0 0 0 0 0 0 0 0 0 0 0 0 0 0 0 0 0 0 0 0 0 0 0 0 0 0 0 0 0 0 0 0
0 0 0 0 0 0 0 0 0 0 0 0 0 0 0 0 0 0 0 0 0 0 0 0 0 0 0 0 0 0 0 0 0 0 0 0 0 0
0 0 0 0 0 0 0 0 0 0 0 0 0 0 0 0 0 0 0 0 0 0 0 0 0 0 0 0 0 0 0 0 0 0 0 0 0 0
0 0 0 0 0 0 0 0 0 0 0 0 0 0 0 0 0 0 0 0 0 0 0 0 0 0 0 0 0 0 0 0 0 0 0 0 0 0
0 0 0 0 0 0 0 0 0 0 0 0 0 0 0 0 0 0 0 0 0 0 0 0 0 0 0 0 0 0 0 0 0 0 0 0 0 0
0 0 0 0 0 0 0 0 0 0 0 0 0 0 0 0 0 0 0 0 0 0 0 0 0 0 0 0 0 0 0 0 0 0 0 0 0 0
0 0 0 0 0 0 0 0 0 0 0 0 0 0 0 0 0 0 0 0 0 0 0 0 0 0 0 0 0 0 0 0 0 0 0 0 0 0
0 0 0 0 0 0 0 0 0 0 0 0 0 0 0 0 0 0 0 0 0 0 0 0 0 0 0 0 0 0 0 0 0 0 0 0 0 0
0 0 0 0 0 0 0 0 0 0 0 0 0 0 0 0 0 0 0 0 0 0 0 0 0 0 0 0 0 0 0 0 0 0 0 0 0 0
0 0 0 0 0 0 0 0 0 0 0 0 0 0 0 0 0 0 0 0 0 0 0 0 0 0 0 0 0 0 0 0 0 0 0 0 0 0
0 0 0 0 0 0 0 0 0 0 0 0 0 0 0 0 0 0 0 0 0 0 0 0 0 0 0 0 0 0 0 0 0 0 0 0 0 0
0 0 0 0 0 0 0 0 0 0 0 0 0 0 0 0 0 0 0 0 0 0 0 0 0 0 0 0 0 0 0 0 0 0 0 0 0 0
0 0 0 0 0 0 0 0 0 0 0 0 0 0 0 0 0 0 0 0 0 0 0 0 0 0 0 0 0 0 0 0 0 0 0 0 0 0
Wind_Speed
4 4 4 3 3 2 2 3 3 4 4 3 2 2 2 2 4 2 2 5 6 5 5 5 5 4 4 4 4 4 5 5 5 5 5 5 7 7
3 4 4 3 3 3 3 3 3 4 5 2 2 2 2 3 4 2 3 6 6 6 6 5 5 5 5 5 5 5 5 5 5 5 5 5 5 6
5 5 6 5 4 3 3 3 3 3 5 4 2 2 2 3 3 2 3 3 4 7 7 7 6 7 6 6 5 5 5 5 6 6 5 5 5 6
6 6 6 4 5 4 4 4 4 4 5 5 3 3 3 3 3 3 3 3 3 6 7 7 7 7 7 6 6 5 5 5 6 6 6 6 6 7
7 7 6 6 6 5 5 5 4 4 4 4 4 3 2 2 2 2 3 2 3 4 6 7 8 8 7 7 6 5 5 5 6 7 7 6 6 7
6 7 7 7 7 6 6 6 5 4 4 4 4 3 2 2 2 2 3 2 3 3 4 5 6 7 8 7 6 5 6 6 6 7 7 7 7 7
6 6 7 8 9 8 6 5 5 4 4 4 4 3 3 2 3 2 3 3 3 2 2 2 2 2 3 5 5 6 7 7 7 7 7 7 7 7
6 5 6 8 9 11 12 10 8 6 6 5 5 5 5 4 3 3 3 2 3 2 2 3 2 3 3 3 5 7 7 8 8 8 8 7 7 7
5 5 5 6 8 6 8 11 10 12 11 7 7 7 6 5 5 5 5 5 5 3 2 3 2 3 3 4 7 7 7 7 7 8 8 8 8 8
5 5 6 6 6 6 6 6 7 8 9 8 7 7 6 6 6 6 5 4 3 2 2 3 2 2 2 2 6 7 7 7 7 8 8 8 8 8
6 6 6 7 10 10 7 6 7 7 9 11 11 10 10 10 7 4 3 3 4 3 3 3 2 1 2 3 4 7 7 7 6 6 7 8 8 7
5 5 8 9 10 11 7 6 7 6 5 6 7 8 7 8 10 7 5 5 3 3 3 3 2 1 2 2 2 2 3 5 5 5 5 6 6 3
5 4 5 9 10 10 9 6 8 7 5 5 5 5 4 4 5 5 5 6 5 4 3 3 2 2 2 2 1 1 2 1 2 3 4 5 5 4
5 4 5 9 9 10 8 8 10 8 4 4 4 4 4 4 4 4 5 5 5 5 4 4 3 3 3 3 3 1 1 1 2 2 2 4 5 6
5 7 8 9 8 6 8 9 7 4 3 4 4 4 3 3 2 2 3 3 2 3 4 4 3 3 3 3 3 2 2 2 3 3 3 3 3 3
5 6 8 7 6 5 5 5 3 3 3 3 3 3 2 2 2 2 2 2 2 2 2 3 4 5 4 4 3 3 3 3 2 3 3 3 3 3
4 2 2 2 3 3 3 2 2 2 2 2 3 2 2 2 2 2 2 2 2 3 2 1 1 2 2 3 3 4 3 3 3 3 3 3 3 3
4 2 2 3 3 3 3 3 2 2 2 2 2 3 3 3 3 2 2 2 3 3 3 2 2 1 1 2 3 4 3 3 3 3 3 4 4 3
3 3 3 3 3 3 2 2 2 2 2 2 2 2 2 3 3 3 3 3 3 3 3 3 3 3 3 3 2 3 3 3 2 2 3 3 4 4
3 3 3 3 3 3 3 2 2 2 2 2 2 2 2 2 2 3 3 3 3 3 3 3 3 4 5 4 2 2 4 3 3 3 3 2 3 4
3 3 3 3 3 3 3 2 2 2 2 2 2 2 2 2 2 3 3 4 3 3 4 4 4 3 1 1 1 1 2 3 3 3 2 2 2 2
4 4 3 3 3 3 3 2 2 2 2 2 2 2 2 2 3 3 3 3 3 3 3 2 1 1 2 3 3 2 2 1 2 4 4 4 3 3
4 4 4 3 3 3 3 3 3 2 2 2 2 2 2 2 2 2 2 2 2 2 2 1 1 1 2 2 2 2 2 2 1 1 2 4 5 6
Wind_Direction
238 235 236 237 238 230 221 208 212 239 252 241 245 255 273 275 284 281 277 279 279 275 272 273 265 256 262 269 261 261 238 219 209 207 211 215 221 220
238 236 240 237 237 233 230 230 225 225 248 239 239 271 277 284 285 288 268 270 268 268 268 268 260 250 254 251 256 257 245 227 214 211 212 219 227 228
242 238 240 235 232 231 228 228 230 226 246 263 255 267 250 259 282 278 273 262 256 257 258 258 256 246 246 249 252 254 245 238 219 216 218 224 232 234
244 241 244 240 234 231 229 232 233 230 233 253 258 249 248 254 259 262 272 269 260 258 255 254 254 248 245 247 252 241 243 251 233 222 221 227 234 237
246 242 241 235 235 234 234 233 234 238 231 240 254 246 251 256 268 279 276 270 273 266 258 251 249 248 247 246 237 237 242 251 247 230 226 229 234 239
254 243 237 233 235 233 234 233 231 228 226 233 248 250 249 252 244 257 275 262 267 275 262 261 259 254 249 241 235 236 239 245 252 242 232 231 234 238
259 250 244 241 242 240 238 230 224 224 224 229 241 247 240 232 235 240 256 275 275 252 253 263 264 254 241 239 242 235 236 240 247 243 236 234 235 236
263 260 256 252 250 251 252 246 235 226 226 229 236 237 240 234 234 234 242 254 265 239 239 263 240 245 238 228 235 238 240 241 243 240 239 238 237 236
261 262 266 262 258 245 252 255 251 248 241 234 234 234 234 227 224 232 232 236 247 238 244 262 236 244 245 240 235 238 243 249 250 244 239 240 240 238
261 254 254 259 255 253 243 246 248 251 250 241 235 237 236 227 223 231 236 251 273 251 218 246 229 235 251 243 235 238 243 245 247 248 242 242 243 242
270 263 256 251 257 257 249 247 252 256 260 254 249 247 246 244 235 223 221 232 254 245 206 212 226 251 260 251 241 237 240 245 250 256 252 247 244 241
280 272 266 262 260 258 247 246 251 254 255 258 256 253 246 240 237 224 215 224 229 234 202 190 199 175 261 260 235 233 239 244 248 256 266 260 254 237
291 282 271 274 274 270 262 250 255 258 250 246 246 245 239 231 229 224 220 220 216 227 202 187 204 202 215 256 273 249 226 238 255 263 262 264 265 256
291 290 282 284 282 281 276 272 270 268 253 248 247 242 239 236 231 225 223 223 225 229 214 198 204 199 199 231 250 243 229 235 239 255 257 264 262 264
295 296 295 294 292 290 289 285 278 266 253 247 245 242 235 230 221 221 222 218 229 237 218 214 204 203 207 219 230 227 243 248 231 228 232 243 250 252
303 303 304 306 304 303 305 298 280 264 253 243 244 243 227 212 215 215 222 212 222 262 254 228 218 205 216 223 222 230 221 221 219 226 235 249 251 245
302 301 307 309 303 299 299 295 282 279 266 255 243 235 227 224 227 215 213 213 220 226 235 232 209 215 230 219 225 230 225 232 232 230 234 248 250 243
315 313 308 301 294 290 287 288 286 276 261 257 252 236 228 222 226 223 217 213 223 226 225 215 192 213 268 280 240 228 230 233 232 227 225 237 252 248
316 309 300 299 296 295 291 285 284 286 279 256 249 240 233 227 222 222 218 218 226 229 222 210 205 202 214 239 254 228 224 232 226 228 228 232 248 253
320 311 304 297 294 292 291 292 292 294 281 268 259 248 237 231 231 228 223 221 224 229 233 224 216 215 216 220 228 263 241 227 224 234 245 252 260 269
314 308 304 301 299 294 292 291 289 282 281 266 260 259 248 234 232 235 234 234 231 225 229 236 236 227 197 138 177 250 263 245 237 235 232 242 263 264
311 303 302 299 295 291 289 287 285 283 283 275 264 257 255 243 235 233 234 234 234 227 232 246 220 190 181 197 215 226 253 290 286 275 260 235 222 229
302 301 295 294 294 293 288 286 286 284 277 273 273 265 256 256 250 239 233 230 232 225 218 225 222 195 196 198 207 217 228 253 271 295 297 284 271 266